Terminal Aerodrome Forecast
Issued by NWS Portland, OR

Home | Current Version | Previous Version | Text Only | Print | Product List | Glossary On
Versions: 1 2 3 4 5 6 7 8 9 10 11 12 13 14 15 16 17 18 19 20 21 22 23 24 25 26 27 28 29
000
FTUS46 KPQR 280529
TAFHIO
TAF
KHIO 280529Z 2806/2906 25010G20KT P6SM -SHRA SCT030 OVC060
     FM280700 23007KT P6SM -SHRA SCT025 BKN040
     FM281700 20004KT P6SM BKN050=

USA.gov is the U.S. government's official web portal to all federal, state and local government web resources and services.